• In Latvia
  • List of Countries
  • For 7 days
  • Water Temperature
  • Satellite Maps
  • Weather Map
  • Weather Widgets
  • user-avatar
    Login

    Hourly Weather Milcz

    Today, 14 August, Tuesday

    Time Temperature Precipitation Wind Pressure Humidity
    00:00 +21°C° 1 mm 3 mps 743 mmHg 82%
    01:00 +21°C° 0 mm 3 mps 744 mmHg 80%
    02:00 +21°C° 0.3 mm 3 mps 744 mmHg 83%
    03:00 +20°C° 0.3 mm 3 mps 744 mmHg 85%
    04:00 +20°C° 0.3 mm 3 mps 744 mmHg 87%
    05:00 +20°C° 0.5 mm 3 mps 744 mmHg 87%
    06:00 +20°C° 0.5 mm 3 mps 744 mmHg 86%
    07:00 +21°C° 0 mm 2 mps 745 mmHg 83%
    08:00 +22°C° 0.1 mm 3 mps 745 mmHg 77%
    09:00 +24°C° 0.1 mm 3 mps 745 mmHg 71%
    10:00 +25°C° 0.1 mm 3 mps 745 mmHg 65%
    11:00 +26°C° 0.1 mm 3 mps 745 mmHg 59%
    12:00 +27°C° 0.1 mm 4 mps 745 mmHg 54%
    13:00 +27°C° 0 mm 4 mps 746 mmHg 50%
    14:00 +27°C° 0 mm 4 mps 746 mmHg 49%
    15:00 +27°C° 0 mm 3 mps 746 mmHg 47%
    16:00 +27°C° 0 mm 3 mps 745 mmHg 46%
    17:00 +26°C° 0 mm 3 mps 746 mmHg 50%
    18:00 +25°C° 0 mm 3 mps 746 mmHg 54%
    19:00 +24°C° 0 mm 2 mps 746 mmHg 58%
    20:00 +22°C° 0 mm 3 mps 746 mmHg 61%
    21:00 +22°C° 0 mm 3 mps 746 mmHg 64%
    22:00 +21°C° 0 mm 4 mps 747 mmHg 67%
    23:00 +20°C° 0 mm 4 mps 747 mmHg 71%

    Tomorrow, 15 August, Wednesday

    Time Temperature Precipitation Wind Pressure Humidity
    00:00 +20°C° 0 mm 4 mps 747 mmHg 75%
    01:00 +19°C° 0 mm 4 mps 747 mmHg 79%
    02:00 +19°C° 0 mm 4 mps 748 mmHg 82%
    03:00 +18°C° 0 mm 4 mps 748 mmHg 84%
    04:00 +18°C° 0 mm 4 mps 748 mmHg 87%
    05:00 +18°C° 0 mm 4 mps 749 mmHg 85%
    06:00 +18°C° 0 mm 4 mps 749 mmHg 84%
    07:00 +19°C° 0 mm 5 mps 749 mmHg 82%
    08:00 +19°C° 0.1 mm 5 mps 750 mmHg 80%
    09:00 +20°C° 0.1 mm 5 mps 750 mmHg 77%
    10:00 +20°C° 0.1 mm 5 mps 750 mmHg 75%
    11:00 +21°C° 0 mm 5 mps 750 mmHg 69%
    12:00 +23°C° 0 mm 5 mps 750 mmHg 63%
    13:00 +25°C° 0 mm 4 mps 750 mmHg 57%
    14:00 +25°C° 0 mm 4 mps 750 mmHg 54%
    15:00 +26°C° 0 mm 4 mps 750 mmHg 52%
    16:00 +26°C° 0 mm 4 mps 750 mmHg 49%
    17:00 +25°C° 0 mm 3 mps 750 mmHg 54%
    18:00 +24°C° 0 mm 3 mps 750 mmHg 58%
    19:00 +21°C° 0 mm 2 mps 750 mmHg 63%
    20:00 +20°C° 0 mm 2 mps 751 mmHg 66%
    21:00 +20°C° 0 mm 2 mps 751 mmHg 70%
    22:00 +19°C° 0 mm 2 mps 752 mmHg 73%
    23:00 +19°C° 0 mm 1 mps 752 mmHg 75%

    Day after tomorrow, 16 August, Thursday

    Time Temperature Precipitation Wind Pressure Humidity
    00:00 +19°C° 0 mm 1 mps 752 mmHg 78%
    01:00 +18°C° 0 mm 1 mps 752 mmHg 81%
    02:00 +18°C° 0 mm 1 mps 752 mmHg 82%
    03:00 +18°C° 0 mm 1 mps 752 mmHg 84%
    04:00 +16°C° 0 mm 1 mps 752 mmHg 85%
    05:00 +16°C° 0 mm 0 mps 752 mmHg 81%
    06:00 +18°C° 0 mm 0 mps 752 mmHg 76%
    07:00 +19°C° 0 mm 0 mps 752 mmHg 72%
    08:00 +20°C° 0 mm 0 mps 752 mmHg 66%
    09:00 +24°C° 0 mm 1 mps 752 mmHg 60%
    10:00 +26°C° 0 mm 1 mps 752 mmHg 54%
    11:00 +26°C° 0 mm 1 mps 752 mmHg 51%
    12:00 +27°C° 0 mm 1 mps 751 mmHg 48%
    13:00 +27°C° 0 mm 1 mps 751 mmHg 46%
    14:00 +27°C° 0 mm 1 mps 751 mmHg 46%
    15:00 +27°C° 0 mm 1 mps 750 mmHg 45%
    16:00 +27°C° 0 mm 1 mps 750 mmHg 45%
    17:00 +26°C° 0 mm 1 mps 750 mmHg 49%
    18:00 +25°C° 0 mm 1 mps 750 mmHg 53%
    19:00 +24°C° 0 mm 2 mps 750 mmHg 57%
    20:00 +23°C° 0 mm 2 mps 750 mmHg 59%
    21:00 +21°C° 0 mm 2 mps 750 mmHg 61%
    22:00 +20°C° 0 mm 2 mps 750 mmHg 63%
    23:00 +20°C° 0 mm 2 mps 750 mmHg 65%

    17 August, Friday

    Time Temperature Precipitation Wind Pressure Humidity
    00:00 +19°C° 0 mm 2 mps 750 mmHg 67%
    01:00 +19°C° 0 mm 2 mps 750 mmHg 69%
    02:00 +19°C° 0 mm 2 mps 750 mmHg 71%
    03:00 +18°C° 0 mm 2 mps 749 mmHg 72%
    04:00 +18°C° 0 mm 2 mps 749 mmHg 74%
    05:00 +19°C° 0 mm 2 mps 749 mmHg 72%
    06:00 +20°C° 0 mm 2 mps 749 mmHg 70%
    07:00 +21°C° 0 mm 2 mps 749 mmHg 68%
    08:00 +24°C° 0 mm 3 mps 749 mmHg 62%
    09:00 +26°C° 0 mm 3 mps 749 mmHg 56%
    10:00 +28°C° 0 mm 3 mps 749 mmHg 50%
    11:00 +29°C° 0 mm 3 mps 749 mmHg 46%
    12:00 +29°C° 0 mm 3 mps 749 mmHg 43%
    13:00 +30°C° 0 mm 2 mps 748 mmHg 40%
    14:00 +30°C° 0 mm 2 mps 748 mmHg 39%
    15:00 +30°C° 0 mm 1 mps 748 mmHg 39%
    16:00 +31°C° 0 mm 1 mps 748 mmHg 38%
    17:00 +29°C° 0 mm 1 mps 748 mmHg 42%
    18:00 +28°C° 0 mm 1 mps 748 mmHg 45%
    19:00 +27°C° 0 mm 1 mps 748 mmHg 49%
    20:00 +26°C° 0 mm 1 mps 748 mmHg 51%
    21:00 +25°C° 0 mm 1 mps 749 mmHg 53%
    22:00 +24°C° 0 mm 1 mps 749 mmHg 54%
    23:00 +24°C° 0 mm 2 mps 749 mmHg 58%

    18 August, Saturday

    Time Temperature Precipitation Wind Pressure Humidity
    00:00 +23°C° 0 mm 2 mps 749 mmHg 61%
    01:00 +21°C° 0 mm 2 mps 750 mmHg 64%
    02:00 +21°C° 0.2 mm 2 mps 750 mmHg 70%
    03:00 +20°C° 0.2 mm 3 mps 750 mmHg 77%
    04:00 +20°C° 0.2 mm 3 mps 750 mmHg 83%
    05:00 +20°C° 0.2 mm 3 mps 751 mmHg 84%
    06:00 +20°C° 0.2 mm 4 mps 751 mmHg 86%
    07:00 +20°C° 0.2 mm 4 mps 752 mmHg 88%
    08:00 +20°C° 0 mm 4 mps 752 mmHg 84%
    09:00 +21°C° 0 mm 3 mps 752 mmHg 81%
    10:00 +21°C° 0 mm 3 mps 752 mmHg 77%
    11:00 +22°C° 0 mm 3 mps 752 mmHg 70%
    12:00 +25°C° 0 mm 3 mps 752 mmHg 63%
    13:00 +26°C° 0 mm 3 mps 752 mmHg 56%
    14:00 +26°C° 0 mm 3 mps 752 mmHg 52%
    15:00 +27°C° 0 mm 3 mps 752 mmHg 49%
    16:00 +28°C° 0 mm 3 mps 752 mmHg 45%
    17:00 +26°C° 0 mm 2 mps 752 mmHg 48%
    18:00 +25°C° 0 mm 2 mps 752 mmHg 51%
    19:00 +23°C° 0 mm 2 mps 752 mmHg 54%
    20:00 +22°C° 0 mm 1 mps 752 mmHg 54%
    21:00 +21°C° 0 mm 1 mps 753 mmHg 55%
    22:00 +20°C° 0 mm 1 mps 753 mmHg 55%
    23:00 +20°C° 0 mm 1 mps 753 mmHg 56%

    19 August, Sunday

    Time Temperature Precipitation Wind Pressure Humidity
    00:00 +19°C° 0 mm 1 mps 753 mmHg 56%
    01:00 +19°C° 0 mm 1 mps 753 mmHg 57%
    02:00 +19°C° 0 mm 1 mps 753 mmHg 59%
    03:00 +18°C° 0 mm 1 mps 753 mmHg 60%
    04:00 +18°C° 0 mm 1 mps 753 mmHg 61%
    05:00 +19°C° 0 mm 1 mps 754 mmHg 60%
    06:00 +19°C° 0 mm 2 mps 754 mmHg 59%
    07:00 +20°C° 0 mm 2 mps 754 mmHg 58%
    08:00 +23°C° 0 mm 2 mps 754 mmHg 52%
    09:00 +25°C° 0 mm 2 mps 754 mmHg 47%
    10:00 +26°C° 0 mm 2 mps 754 mmHg 41%
    11:00 +27°C° 0 mm 2 mps 754 mmHg 40%
    12:00 +28°C° 0 mm 2 mps 754 mmHg 38%
    13:00 +29°C° 0 mm 2 mps 753 mmHg 36%
    14:00 +29°C° 0 mm 3 mps 753 mmHg 36%
    15:00 +29°C° 0 mm 3 mps 753 mmHg 36%
    16:00 +29°C° 0 mm 3 mps 753 mmHg 37%
    17:00 +28°C° 0 mm 2 mps 753 mmHg 42%
    18:00 +26°C° 0 mm 2 mps 753 mmHg 47%
    19:00 +25°C° 0 mm 1 mps 753 mmHg 53%
    20:00 +24°C° 0 mm 1 mps 753 mmHg 55%
    21:00 +23°C° 0 mm 1 mps 753 mmHg 58%
    22:00 +22°C° 0 mm 1 mps 754 mmHg 60%
    23:00 +21°C° 0 mm 1 mps 754 mmHg 64%
    Show more